Location: Unspecified
(48.2082°N, 0.0000°E)
Time: 02:52:31
(UTC+00:00)

S-56A Canister/Altair - Pass Details

Date: 21 June 2019
Orbit: 632 x 2500 km, 38.9° (Epoch: 18 July)

Event Time Altitude Azimuth Distance (km) Brightness Sun altitude
Rises 14:04:26 0° 197° (SSW) 5,406 12.2 55.3°
Reaches altitude 10° 14:10:28 10° 177° (S) 3,983 11.6 54.5°
Maximum altitude 14:15:08 14° 149° (SSE) 3,280 10.9 53.8°
Drops below altitude 10° 14:19:07 10° 120° (ESE) 3,273 10.7 53.3°
Sets 14:23:10 0° 96° (E) 3,887 10.8 52.7°
